Overview Statistics Trail Chart Weather Telemetry Raw packets
 

This is the latest recevied weather packets stored in our database for station/object K1NOT-WX. If no packets are shown the sender has not sent any weather packets the latest 10 day(s).

<< 32 33 34 35 36 37 38 >>
Time Temp. Humidity Pressure Rain* Wind** Luminosity Snow
1776999433 12.22° C 74% 1011.2 hPa 0 mm - - -
1776998533 12.78° C 70% 1011.2 hPa 0 mm - - -
1776997633 13.33° C 69% 1011.2 hPa 0 mm - - -
1776996733 13.89° C 67% 1011.2 hPa 0 mm - - -
1776995833 14.44° C 64% 1011.5 hPa 0 mm - - -
1776994933 13.89° C 64% 1011.5 hPa 0 mm - - -
1776994033 14.44° C 64% 1011.8 hPa 0 mm - - -
1776993133 13.89° C 64% 1011.8 hPa 0 mm - - -
1776992233 13.89° C 64% 1011.8 hPa 0 mm - - -
1776991343 13.89° C 64% 1011.8 hPa 0 mm - - -
1776990433 14.44° C 62% 1012.2 hPa 0 mm - - -
1776989533 13.89° C 64% 1011.8 hPa 0 mm - - -
1776988633 13.33° C 68% 1012.2 hPa 0 mm - - -
1776987733 13.33° C 67% 1012.5 hPa 0 mm - - -
1776986833 12.78° C 68% 1012.5 hPa 0 mm - - -
1776985933 13.33° C 66% 1012.5 hPa 0 mm - - -
1776985033 13.33° C 67% 1012.5 hPa 0 mm - - -
1776984133 13.33° C 67% 1012.5 hPa 0 mm - - -
1776983233 12.78° C 69% 1012.9 hPa 0 mm - - -
1776982333 13.33° C 66% 1012.9 hPa 0 mm - - -
1776981433 13.33° C 67% 1012.9 hPa 0 mm - - -
1776980533 13.33° C 67% 1012.9 hPa 0 mm - - -
1776979633 13.33° C 68% 1013.2 hPa 0 mm - - -
1776978733 13.33° C 66% 1013.5 hPa 0 mm - - -
1776977832 12.22° C 69% 1013.2 hPa 0 mm - - -

* Rain latest hour (hover to see other rain measurements)
** Current wind speed in m/s (hover to see current wind gust speed)